TimeCST,TemperatureF,Dew PointF,Humidity,Sea Level PressureIn,VisibilityMPH,Wind Direction,Wind SpeedMPH,Gust SpeedMPH,PrecipitationIn,Events,Conditions,WindDirDegrees,DateUTC
12:52 AM,62.1,59.0,90,29.92,10.0,NE,8.1,-,N/A,,Clear,50,2013-02-07 06:52:00
1:52 AM,62.1,59.0,90,29.91,10.0,NE,5.8,-,N/A,,Clear,50,2013-02-07 07:52:00
2:52 AM,62.1,60.1,93,29.92,10.0,Calm,Calm,-,N/A,,Clear,0,2013-02-07 08:52:00
3:52 AM,61.0,59.0,93,29.92,9.0,NNE,3.5,-,N/A,,Clear,20,2013-02-07 09:52:00
4:52 AM,60.1,59.0,96,29.93,2.0,Calm,Calm,-,N/A,,Scattered Clouds,0,2013-02-07 10:52:00
4:56 AM,60.8,59.0,94,29.93,3.0,Calm,Calm,-,N/A,,Mostly Cloudy,0,2013-02-07 10:56:00
5:09 AM,59.0,59.0,100,29.92,1.8,Calm,Calm,-,N/A,,Mostly Cloudy,0,2013-02-07 11:09:00
5:19 AM,59.0,57.2,94,29.91,3.0,NE,3.5,-,N/A,,Overcast,40,2013-02-07 11:19:00
5:38 AM,59.0,57.2,94,29.91,6.0,NE,4.6,-,N/A,,Scattered Clouds,40,2013-02-07 11:38:00
5:52 AM,59.0,57.9,96,29.92,6.0,North,3.5,-,N/A,,Clear,360,2013-02-07 11:52:00
6:52 AM,60.1,57.9,93,29.92,5.0,NE,5.8,-,N/A,,Clear,40,2013-02-07 12:52:00
7:52 AM,62.1,60.1,93,29.93,4.0,NNE,4.6,-,N/A,,Clear,30,2013-02-07 13:52:00
8:52 AM,64.9,62.1,90,29.94,10.0,ENE,5.8,-,N/A,,Clear,70,2013-02-07 14:52:00
9:52 AM,66.9,61.0,81,29.97,10.0,ENE,6.9,-,N/A,,Partly Cloudy,70,2013-02-07 15:52:00
10:52 AM,66.0,61.0,84,29.99,10.0,East,6.9,-,N/A,,Mostly Cloudy,100,2013-02-07 16:52:00
11:52 AM,64.9,62.1,90,29.98,10.0,East,5.8,-,N/A,,Overcast,80,2013-02-07 17:52:00
12:52 PM,66.0,62.1,87,29.96,8.0,North,3.5,-,N/A,,Overcast,360,2013-02-07 18:52:00
1:52 PM,66.9,62.1,84,29.94,8.0,North,4.6,-,N/A,,Overcast,350,2013-02-07 19:52:00
2:45 PM,66.2,62.6,88,29.93,8.0,NNW,4.6,-,N/A,,Overcast,340,2013-02-07 20:45:00
2:52 PM,66.0,62.1,87,29.93,8.0,North,4.6,-,N/A,,Overcast,10,2013-02-07 20:52:00
3:52 PM,66.0,62.1,87,29.94,7.0,Calm,Calm,-,N/A,,Overcast,0,2013-02-07 21:52:00
4:45 PM,64.4,62.6,94,29.93,2.0,East,6.9,-,N/A,,Overcast,80,2013-02-07 22:45:00
4:52 PM,64.9,62.1,90,29.93,10.0,East,8.1,-,N/A,,Overcast,80,2013-02-07 22:52:00
5:15 PM,64.4,62.6,94,29.93,10.0,East,6.9,-,N/A,,Overcast,90,2013-02-07 23:15:00
5:36 PM,64.4,62.6,94,29.92,10.0,East,8.1,-,N/A,,Scattered Clouds,100,2013-02-07 23:36:00
5:52 PM,64.0,61.0,90,29.92,10.0,ESE,8.1,-,N/A,,Clear,110,2013-02-07 23:52:00
6:52 PM,63.0,61.0,93,29.93,10.0,ESE,6.9,-,N/A,,Clear,110,2013-02-08 00:52:00
7:52 PM,63.0,62.1,97,29.96,10.0,SE,8.1,-,N/A,,Scattered Clouds,130,2013-02-08 01:52:00
7:58 PM,62.6,62.6,100,29.96,10.0,SE,9.2,-,N/A,,Mostly Cloudy,130,2013-02-08 01:58:00
8:10 PM,62.6,62.6,100,29.96,2.5,SE,8.1,-,N/A,,Mostly Cloudy,130,2013-02-08 02:10:00
8:15 PM,62.6,62.6,100,29.96,0.8,ESE,9.2,-,N/A,,Overcast,120,2013-02-08 02:15:00
8:24 PM,62.6,60.8,94,29.96,0.5,ESE,5.8,-,N/A,Fog,Fog,120,2013-02-08 02:24:00
8:36 PM,62.6,62.6,100,29.97,1.5,ESE,4.6,-,N/A,,Overcast,110,2013-02-08 02:36:00
8:45 PM,62.6,62.6,100,29.97,3.0,Calm,Calm,-,N/A,,Overcast,0,2013-02-08 02:45:00
8:52 PM,62.1,62.1,100,29.98,7.0,Calm,Calm,-,N/A,,Mostly Cloudy,0,2013-02-08 02:52:00
9:06 PM,62.6,62.6,100,29.98,6.0,Calm,Calm,-,N/A,,Mostly Cloudy,0,2013-02-08 03:06:00
9:52 PM,63.0,62.1,97,29.99,9.0,Calm,Calm,-,N/A,,Overcast,0,2013-02-08 03:52:00
10:52 PM,63.0,62.1,97,29.98,10.0,South,5.8,-,N/A,,Overcast,170,2013-02-08 04:52:00
11:52 PM,64.9,63.0,93,30.01,10.0,West,5.8,-,N/A,,Overcast,280,2013-02-08 05:52:00